User: anonymous   Login
Location: Unspecified
(0.0000°N, 0.0000°E)
Time: 13:02:39
(UTC+00:00)
Language:

USA 245 - Orbit

View from above orbital plane
View from above orbital plane
View from above satellite
View from above satellite

Ground track
Ground track

The orbit data is extracted from the following two-line orbital elements,

1 39232U 13043A   21122.89576954 0.00013500  00000-0  14157-3 0    04
2 39232  97.8889 186.1799 0510982  77.8199 282.1800 14.81023306    06
Epoch (UTC): 02 May 2021 21:29:54
Eccentricity: 0.0510982
inclination: 97.8889°
perigee height: 268 km
apogee height: 984 km
right ascension of ascending node: 186.1799°
argument of perigee: 77.8199°
revolutions per day: 14.81023306
mean anomaly at epoch: 282.1800°
orbit number at epoch: 0

The dashed part of the orbit path shows where the satellite is in the earth's shadow,  

DLR